Weather History for KBPC - November, 2012

Change the Weather History Date:

Sunday, November 18, 2012

  Actual Average Record
Temperature  
Mean Temperature 58 °F -  
Max Temperature 73 °F - - ()
Min Temperature 44 °F - - ()
Degree Days  
Heating Degree Days 6    
Growing Degree Days 8 (Base 50)    
Moisture  
Dew Point 40 °F    
Average Humidity 56    
Maximum Humidity 82    
Minimum Humidity 25    
Precipitation  
Precipitation 0.00 in - - ()
Sea Level Pressure  
Sea Level Pressure 30.05 in    
Wind  
Wind Speed 12 mph (SSW)    
Max Wind Speed 23 mph    
Max Gust Speed 32 mph    
Visibility 10 miles    
Events Rain    
Averages and records for this station are not official NWS values.
T = Trace of Precipitation, MM = Missing Value Source: NWS Daily Summary

Daily Weather History Graph

Daily Weather History Graph

Search for Another Location

Airport or City:

Trip Planner

Search our weather history database for the weather conditions in past years. The results will help you decide how hot, cold, wet, or windy it might be!

Date:

Astronomy

Nov. 18, 2012 Rise Set
Actual Time 7:23 AM CST 5:34 PM CST
Civil Twilight 6:56 AM CST 6:02 PM CST
Nautical Twilight 6:25 AM CST 6:33 PM CST
Astronomical Twilight 5:54 AM CST 7:03 PM CST
Moon 11:54 AM CST (11/18) 10:53 PM CST (11/18)
Length of Visible Light 11h 05m
Length of Day
10h 10m
Waxing Crescent, 30% of the Moon is Illuminated
Nov 18
Waxing Crescent
Nov 20
First Quarter
Nov 28
Full
Dec 6
Last Quarter
Dec 13
New

Hourly Weather History & Observations

Time (CST) Temp. Windchill Dew Point Humidity Pressure Visibility Wind Dir Wind Speed Gust Speed Precip Events Conditions
12:15 AM 53.6 °F - 39.2 °F 58% 30.12 in 10.0 mi SSW 12.7 mph - N/A   Clear
12:35 AM 53.6 °F - 41.0 °F 62% 30.12 in 10.0 mi SSW 13.8 mph - N/A   Clear
12:55 AM 53.6 °F - 39.2 °F 58% 30.12 in 10.0 mi South 17.3 mph 21.9 mph N/A   Clear
1:15 AM 53.6 °F - 39.2 °F 58% 30.11 in 10.0 mi South 15.0 mph 19.6 mph N/A   Clear
1:35 AM 53.6 °F - 39.2 °F 58% 30.10 in 10.0 mi South 13.8 mph - N/A   Clear
1:55 AM 53.6 °F - 37.4 °F 54% 30.10 in 10.0 mi South 11.5 mph 17.3 mph N/A   Clear
2:15 AM 51.8 °F - 37.4 °F 58% 30.10 in 10.0 mi South 12.7 mph - N/A   Clear
2:35 AM 51.8 °F - 37.4 °F 58% 30.09 in 10.0 mi South 12.7 mph 17.3 mph N/A   Clear
2:55 AM 51.8 °F - 37.4 °F 58% 30.09 in 10.0 mi SSW 10.4 mph 17.3 mph N/A   Clear
3:15 AM 50.0 °F - 37.4 °F 62% 30.09 in 10.0 mi SSW 6.9 mph - N/A   Clear
3:35 AM 50.0 °F - 37.4 °F 62% 30.09 in 10.0 mi SSW 4.6 mph - N/A   Clear
4:15 AM 48.2 °F - 37.4 °F 66% 30.08 in 10.0 mi SSW 5.8 mph - N/A   Clear
4:35 AM 48.2 °F - 37.4 °F 66% 30.08 in 10.0 mi Calm Calm - N/A   Clear
4:55 AM 46.4 °F 44.3 °F 37.4 °F 71% 30.07 in 10.0 mi South 4.6 mph - N/A   Clear
5:15 AM 46.4 °F 42.4 °F 37.4 °F 71% 30.07 in 10.0 mi South 8.1 mph - N/A   Clear
5:35 AM 46.4 °F 43.5 °F 37.4 °F 71% 30.07 in 10.0 mi SSE 5.8 mph - N/A   Clear
5:55 AM 46.4 °F 44.3 °F 37.4 °F 71% 30.07 in 10.0 mi South 4.6 mph - N/A   Clear
6:15 AM 46.4 °F - 37.4 °F 71% 30.08 in 10.0 mi Calm Calm - N/A   Clear
6:35 AM 46.4 °F 43.5 °F 35.6 °F 66% 30.06 in 10.0 mi South 5.8 mph - N/A   Clear
6:55 AM 44.6 °F 40.2 °F 35.6 °F 71% 30.07 in 10.0 mi South 8.1 mph - N/A   Clear
7:15 AM 46.4 °F 43.5 °F 35.6 °F 66% 30.07 in 10.0 mi South 5.8 mph - N/A   Mostly Cloudy
7:35 AM 46.4 °F 41.1 °F 35.6 °F 66% 30.06 in 10.0 mi South 11.5 mph - N/A   Mostly Cloudy
7:55 AM 46.4 °F 41.9 °F 35.6 °F 66% 30.07 in 10.0 mi South 9.2 mph - N/A   Clear
8:15 AM 50.0 °F - 37.4 °F 62% 30.06 in 10.0 mi South 13.8 mph 19.6 mph N/A   Clear
8:35 AM 50.0 °F - 37.4 °F 62% 30.06 in 10.0 mi South 12.7 mph - N/A   Clear
8:55 AM 51.8 °F - 37.4 °F 58% 30.07 in 10.0 mi South 10.4 mph 16.1 mph N/A   Clear
9:15 AM 51.8 °F - 37.4 °F 58% 30.07 in 10.0 mi SSW 9.2 mph - N/A   Clear
9:35 AM 51.8 °F - 37.4 °F 58% 30.07 in 10.0 mi SSW 12.7 mph - N/A   Clear
9:55 AM 53.6 °F - 39.2 °F 58% 30.06 in 10.0 mi South 15.0 mph 18.4 mph N/A   Clear
10:15 AM 55.4 °F - 39.2 °F 54% 30.05 in 10.0 mi SSW 17.3 mph 21.9 mph N/A   Clear
10:35 AM 57.2 °F - 41.0 °F 55% 30.05 in 10.0 mi SSW 18.4 mph 24.2 mph N/A   Clear
10:55 AM 59.0 °F - 39.2 °F 48% 30.05 in 10.0 mi SSW 16.1 mph 21.9 mph N/A   Clear
11:15 AM 60.8 °F - 39.2 °F 45% 30.05 in 10.0 mi SSW 19.6 mph 24.2 mph N/A   Clear
11:35 AM 62.6 °F - 39.2 °F 42% 30.05 in 10.0 mi SW 12.7 mph 21.9 mph N/A   Clear
11:55 AM 64.4 °F - 39.2 °F 40% 30.04 in 10.0 mi SSW 13.8 mph 18.4 mph N/A   Clear
12:15 PM 66.2 °F - 39.2 °F 37% 30.03 in 10.0 mi SSW 13.8 mph 24.2 mph N/A   Clear
12:35 PM 71.6 °F - 41.0 °F 33% 30.01 in 10.0 mi SW 12.7 mph 21.9 mph N/A   Clear
1:15 PM 71.6 °F - 41.0 °F 33% 29.99 in 10.0 mi SSW 18.4 mph 23.0 mph N/A   Clear
1:35 PM 73.4 °F - 41.0 °F 31% 29.98 in 10.0 mi South 19.6 mph - N/A   Clear
1:55 PM 73.4 °F - 41.0 °F 31% 29.98 in 10.0 mi SSW 21.9 mph 26.5 mph N/A   Clear
2:15 PM 71.6 °F - 39.2 °F 31% 29.97 in 10.0 mi SSW 12.7 mph 16.1 mph N/A   Clear
2:35 PM 73.4 °F - 35.6 °F 25% 29.98 in 10.0 mi SW 18.4 mph 28.8 mph N/A   Scattered Clouds
2:55 PM 73.4 °F - 35.6 °F 25% 29.98 in 10.0 mi WSW 19.6 mph 26.5 mph N/A   Mostly Cloudy
3:15 PM 71.6 °F - 37.4 °F 29% 29.97 in 10.0 mi SW 23.0 mph 32.2 mph N/A   Mostly Cloudy
3:35 PM 69.8 °F - 42.8 °F 38% 29.99 in 10.0 mi SW 21.9 mph 28.8 mph N/A Rain Light Rain
3:55 PM 69.8 °F - 41.0 °F 35% 29.98 in 10.0 mi SSW 19.6 mph - N/A   Overcast
4:15 PM 69.8 °F - 39.2 °F 33% 29.98 in 10.0 mi SSW 17.3 mph 26.5 mph N/A   Mostly Cloudy
4:35 PM 69.8 °F - 41.0 °F 35% 29.99 in 10.0 mi SSW 19.6 mph 25.3 mph N/A   Scattered Clouds
4:55 PM 69.8 °F - 41.0 °F 35% 29.99 in 10.0 mi SSW 17.3 mph 26.5 mph N/A   Overcast
5:15 PM 68.0 °F - 42.8 °F 40% 29.99 in 10.0 mi South 15.0 mph 23.0 mph N/A   Mostly Cloudy
5:35 PM 66.2 °F - 44.6 °F 46% 29.99 in 10.0 mi South 11.5 mph 25.3 mph N/A   Overcast
6:35 PM 60.8 °F - 48.2 °F 63% 30.00 in 10.0 mi South 12.7 mph - N/A   Clear
6:55 PM 60.8 °F - 46.4 °F 59% 30.02 in 10.0 mi South 13.8 mph - N/A   Clear
7:15 PM 59.0 °F - 46.4 °F 63% 30.03 in 10.0 mi South 13.8 mph - N/A   Clear
7:35 PM 59.0 °F - 46.4 °F 63% 30.03 in 10.0 mi South 15.0 mph - N/A   Clear
7:55 PM 60.8 °F - 46.4 °F 59% 30.04 in 10.0 mi SSW 16.1 mph 21.9 mph N/A   Clear
8:15 PM 59.0 °F - 46.4 °F 63% 30.04 in 10.0 mi South 12.7 mph - N/A   Clear
8:35 PM 57.2 °F - 46.4 °F 67% 30.04 in 10.0 mi SSW 13.8 mph - N/A   Clear
8:55 PM 55.4 °F - 46.4 °F 72% 30.04 in 10.0 mi SSW 10.4 mph - N/A   Clear
9:15 PM 53.6 °F - 46.4 °F 77% 30.05 in 10.0 mi SSW 9.2 mph - N/A   Clear
9:35 PM 53.6 °F - 46.4 °F 77% 30.05 in 10.0 mi SW 8.1 mph - N/A   Clear
9:55 PM 53.6 °F - 46.4 °F 77% 30.05 in 10.0 mi SSW 10.4 mph - N/A   Clear
10:15 PM 53.6 °F - 46.4 °F 77% 30.05 in 10.0 mi SSW 10.4 mph - N/A   Clear
10:35 PM 53.6 °F - 46.4 °F 77% 30.05 in 10.0 mi SSW 9.2 mph - N/A   Clear
10:55 PM 53.6 °F - 46.4 °F 77% 30.05 in 10.0 mi SSW 10.4 mph - N/A   Clear
11:15 PM 51.8 °F - 46.4 °F 82% 30.05 in 10.0 mi SSW 11.5 mph - N/A   Clear
11:35 PM 51.8 °F - 46.4 °F 82% 30.05 in 10.0 mi SSW 11.5 mph - N/A   Clear